| time (UTC) | temp F | wind direction | speed MPH | gust MPH | rain 1hr in | rain 24hr in | rain mn in | humidity % | barometer mb |
| 20260903210053 | 86 | 200 | 6.0 | 13.0 | 0.00 | 0.00 | 0.00 | 13 | 1002.6 |
| 20260903205549 | 85 | 158 | 5.0 | 17.0 | 0.00 | 0.00 | 0.00 | 12 | 1002.5 |
| 20260903205048 | 85 | 182 | 6.0 | 17.0 | 0.00 | 0.00 | 0.00 | 13 | 1002.7 |
| 20260903204548 | 85 | 181 | 5.0 | 10.0 | 0.00 | 0.00 | 0.00 | 13 | 1002.7 |
| 20260903204047 | 85 | 183 | 5.0 | 10.0 | 0.00 | 0.00 | 0.00 | 14 | 1002.7 |
| 20260903203546 | 84 | 155 | 3.0 | 13.0 | 0.00 | 0.00 | 0.00 | 14 | 1002.8 |
| 20260903203108 | 85 | 159 | 8.0 | 13.0 | 0.00 | 0.00 | 0.00 | 13 | 1003.1 |
| 20260903202546 | 85 | 192 | 6.0 | 12.0 | 0.00 | 0.00 | 0.00 | 13 | 1003.2 |
| 20260903202045 | 84 | 210 | 7.0 | 12.0 | 0.00 | 0.00 | 0.00 | 13 | 1003.2 |
| 20260903201545 | 84 | 173 | 5.0 | 13.0 | 0.00 | 0.00 | 0.00 | 15 | 1003.3 |
| 20260903201043 | 83 | 164 | 7.0 | 19.0 | 0.00 | 0.00 | 0.00 | 15 | 1003.2 |
| 20260903200542 | 83 | 162 | 7.0 | 19.0 | 0.00 | 0.00 | 0.00 | 15 | 1003.3 |
| 20260903200042 | 83 | 177 | 7.0 | 11.0 | 0.00 | 0.00 | 0.00 | 15 | 1003.4 |
| 20260903195546 | 83 | 180 | 6.0 | 14.0 | 0.00 | 0.00 | 0.00 | 15 | 1003.4 |
| 20260903195039 | 82 | 175 | 6.0 | 14.0 | 0.00 | 0.00 | 0.00 | 17 | 1003.5 |
| 20260903194539 | 82 | 186 | 5.0 | 13.0 | 0.00 | 0.00 | 0.00 | 17 | 1003.6 |
| 20260903194038 | 82 | 98 | 4.0 | 12.0 | 0.00 | 0.00 | 0.00 | 15 | 1003.7 |
| 20260903193544 | 82 | 168 | 6.0 | 12.0 | 0.00 | 0.00 | 0.00 | 15 | 1003.7 |
| 20260903193040 | 82 | 173 | 6.0 | 16.0 | 0.00 | 0.00 | 0.00 | 14 | 1003.7 |
| 20260903192538 | 81 | 176 | 6.0 | 16.0 | 0.00 | 0.00 | 0.00 | 16 | 1003.7 |
| 20260903192035 | 81 | 202 | 6.0 | 12.0 | 0.00 | 0.00 | 0.00 | 16 | 1003.9 |
| 20260903191535 | 81 | 26 | 2.0 | 14.0 | 0.00 | 0.00 | 0.00 | 24 | 1004.0 |
| 20260903191035 | 81 | 189 | 7.0 | 14.0 | 0.00 | 0.00 | 0.00 | 17 | 1004.1 |
| 20260903190536 | 81 | 139 | 4.0 | 12.0 | 0.00 | 0.00 | 0.00 | 21 | 1004.1 |
| 20260903190032 | 80 | 184 | 6.0 | 11.0 | 0.00 | 0.00 | 0.00 | 17 | 1004.2 |
| 20260903185531 | 79 | 164 | 6.0 | 14.0 | 0.00 | 0.00 | 0.00 | 20 | 1004.2 |
| 20260903185031 | 79 | 209 | 9.0 | 16.0 | 0.00 | 0.00 | 0.00 | 25 | 1004.1 |
| 20260903184534 | 79 | 214 | 7.0 | 16.0 | 0.00 | 0.00 | 0.00 | 16 | 1004.3 |
| 20260903184131 | 77 | 155 | 4.0 | 12.0 | 0.00 | 0.00 | 0.00 | 22 | 1004.3 |
| 20260903183530 | 77 | 173 | 3.0 | 15.0 | 0.00 | 0.00 | 0.00 | 29 | 1004.5 |
| 20260903183037 | 76 | 269 | 7.0 | 16.0 | 0.00 | 0.00 | 0.00 | 30 | 1004.6 |
| 20260903182533 | 77 | 236 | 7.0 | 9.0 | 0.00 | 0.00 | 0.00 | 31 | 1004.7 |
| 20260903182029 | 76 | 293 | 2.0 | 9.0 | 0.00 | 0.00 | 0.00 | 33 | 1004.8 |
| 20260903181529 | 76 | 291 | 6.0 | 15.0 | 0.00 | 0.00 | 0.00 | 32 | 1004.8 |
| 20260903181030 | 76 | 306 | 9.0 | 15.0 | 0.00 | 0.00 | 0.00 | 31 | 1005.0 |
| 20260903180529 | 76 | 232 | 5.0 | 9.0 | 0.00 | 0.00 | 0.00 | 29 | 1005.2 |
| 20260903180026 | 76 | 236 | 6.0 | 11.0 | 0.00 | 0.00 | 0.00 | 29 | 1005.2 |
| 20260903175525 | 76 | 267 | 2.0 | 13.0 | 0.00 | 0.00 | 0.00 | 27 | 1005.2 |
| 20260903175023 | 77 | 241 | 6.0 | 13.0 | 0.00 | 0.00 | 0.00 | 29 | 1005.2 |
| 20260903174525 | 80 | 327 | 1.0 | 7.0 | 0.00 | 0.00 | 0.00 | 19 | 1005.1 |
| 20260903174022 | 80 | 207 | 3.0 | 10.0 | 0.00 | 0.00 | 0.00 | 18 | 1005.1 |
| 20260903173520 | 79 | 53 | 4.0 | 10.0 | 0.00 | 0.00 | 0.00 | 16 | 1005.2 |
| 20260903173019 | 78 | 182 | 5.0 | 14.0 | 0.00 | 0.00 | 0.00 | 16 | 1005.2 |
| 20260903172518 | 78 | 167 | 3.0 | 14.0 | 0.00 | 0.00 | 0.00 | 17 | 1005.3 |
| 20260903172016 | 78 | 190 | 2.0 | 12.0 | 0.00 | 0.00 | 0.00 | 21 | 1005.3 |
| 20260903171515 | 77 | 98 | 6.0 | 12.0 | 0.00 | 0.00 | 0.00 | 17 | 1005.3 |
| 20260903171014 | 78 | 155 | 5.0 | 11.0 | 0.00 | 0.00 | 0.00 | 18 | 1005.2 |
| 20260903170512 | 78 | 112 | 2.0 | 11.0 | 0.00 | 0.00 | 0.00 | 21 | 1005.3 |
| 20260903170016 | 77 | 176 | 4.0 | 14.0 | 0.00 | 0.00 | 0.00 | 18 | 1005.4 |
| 20260903165510 | 76 | 159 | 5.0 | 14.0 | 0.00 | 0.00 | 0.00 | 17 | 1005.4 |
| 20260903165009 | 76 | 192 | 9.0 | 14.0 | 0.00 | 0.00 | 0.00 | 17 | 1005.4 |
| 20260903164509 | 76 | 188 | 6.0 | 12.0 | 0.00 | 0.00 | 0.00 | 18 | 1005.5 |
| 20260903164004 | 75 | 217 | 6.0 | 11.0 | 0.00 | 0.00 | 0.00 | 19 | 1005.5 |
| 20260903163503 | 75 | 168 | 6.0 | 11.0 | 0.00 | 0.00 | 0.00 | 18 | 1005.5 |
| 20260903163001 | 75 | 148 | 5.0 | 13.0 | 0.00 | 0.00 | 0.00 | 20 | 1005.5 |
| 20260903162501 | 75 | 183 | 6.0 | 13.0 | 0.00 | 0.00 | 0.00 | 20 | 1005.5 |
| 20260903162100 | 74 | 119 | 4.0 | 15.0 | 0.00 | 0.00 | 0.00 | 20 | 1005.5 |
| 20260903161559 | 74 | 169 | 3.0 | 15.0 | 0.00 | 0.00 | 0.00 | 21 | 1005.4 |
| 20260903161057 | 74 | 154 | 6.0 | 12.0 | 0.00 | 0.00 | 0.00 | 19 | 1005.3 |
| 20260903160556 | 74 | 180 | 2.0 | 9.0 | 0.00 | 0.00 | 0.00 | 23 | 1005.5 |
| 20260903160055 | 73 | 134 | 4.0 | 11.0 | 0.00 | 0.00 | 0.00 | 21 | 1005.4 |
| 20260903155551 | 72 | 141 | 1.0 | 6.0 | 0.00 | 0.00 | 0.00 | 27 | 1005.4 |
| 20260903155051 | 71 | 122 | 3.0 | 6.0 | 0.00 | 0.00 | 0.00 | 31 | 1005.4 |
| 20260903154551 | 69 | 297 | 2.0 | 4.0 | 0.00 | 0.00 | 0.00 | 37 | 1005.4 |
| 20260903154048 | 69 | 328 | 1.0 | 3.0 | 0.00 | 0.00 | 0.00 | 39 | 1005.5 |
| 20260903153547 | 68 | 54 | 1.0 | 2.0 | 0.00 | 0.00 | 0.00 | 41 | 1005.6 |
| 20260903153045 | 67 | 55 | 0.0 | 3.0 | 0.00 | 0.00 | 0.00 | 38 | 1005.6 |
| 20260903152545 | 67 | 345 | 2.0 | 3.0 | 0.00 | 0.00 | 0.00 | 43 | 1005.7 |
| 20260903152046 | 66 | 50 | 2.0 | 3.0 | 0.00 | 0.00 | 0.00 | 41 | 1005.7 |
| 20260903151542 | 65 | 12 | 1.0 | 4.0 | 0.00 | 0.00 | 0.00 | 41 | 1005.8 |
| 20260903151040 | 65 | 65 | 1.0 | 4.0 | 0.00 | 0.00 | 0.00 | 44 | 1005.8 |
| 20260903150540 | 64 | 83 | 2.0 | 3.0 | 0.00 | 0.00 | 0.00 | 41 | 1005.6 |
| 20260903150039 | 63 | 92 | 0.0 | 3.0 | 0.00 | 0.00 | 0.00 | 47 | 1005.7 |
| 20260903145538 | 62 | 92 | 1.0 | 3.0 | 0.00 | 0.00 | 0.00 | 46 | 1005.7 |
| 20260903145038 | 62 | 92 | 1.0 | 3.0 | 0.00 | 0.00 | 0.00 | 47 | 1005.7 |
| 20260903144544 | 61 | 92 | 0.0 | 1.0 | 0.00 | 0.00 | 0.00 | 49 | 1005.7 |
| 20260903144040 | 61 | 93 | 0.0 | 2.0 | 0.00 | 0.00 | 0.00 | 47 | 1005.7 |
| 20260903143537 | 60 | 93 | 0.0 | 2.0 | 0.00 | 0.00 | 0.00 | 46 | 1005.7 |
| 20260903143044 | 60 | 93 | 0.0 | 2.0 | 0.00 | 0.00 | 0.00 | 49 | 1005.8 |
| 20260903142536 | 59 | 93 | 0.0 | 3.0 | 0.00 | 0.00 | 0.00 | 49 | 1005.7 |
| 20260903142036 | 58 | 93 | 0.0 | 2.0 | 0.00 | 0.00 | 0.00 | 52 | 1005.8 |
| 20260903141535 | 58 | 94 | 0.0 | 3.0 | 0.00 | 0.00 | 0.00 | 52 | 1005.7 |
| 20260903141036 | 58 | 93 | 1.0 | 4.0 | 0.00 | 0.00 | 0.00 | 51 | 1005.7 |
| 20260903140534 | 58 | 94 | 2.0 | 4.0 | 0.00 | 0.00 | 0.00 | 48 | 1005.7 |
| 20260903140040 | 58 | 144 | 1.0 | 3.0 | 0.00 | 0.00 | 0.00 | 48 | 1005.6 |
| 20260903135532 | 58 | 360 | 1.0 | 3.0 | 0.00 | 0.00 | 0.00 | 48 | 1005.5 |
| 20260903135035 | 59 | 360 | 0.0 | 3.0 | 0.00 | 0.00 | 0.00 | 44 | 1005.5 |
| 20260903134532 | 60 | 228 | 0.0 | 5.0 | 0.00 | 0.00 | 0.00 | 42 | 1005.3 |
| 20260903132526 | 58 | 205 | 2.0 | 4.0 | 0.00 | 0.00 | 0.00 | 44 | 1005.1 |
| 20260903132027 | 58 | 211 | 1.0 | 5.0 | 0.00 | 0.00 | 0.00 | 45 | 1005.0 |
| 20260903131527 | 58 | 232 | 2.0 | 5.0 | 0.00 | 0.00 | 0.00 | 45 | 1005.0 |
| 20260903131024 | 58 | 220 | 1.0 | 3.0 | 0.00 | 0.00 | 0.00 | 46 | 1004.9 |
| 20260903130525 | 58 | 220 | 0.0 | 3.0 | 0.00 | 0.00 | 0.00 | 45 | 1004.9 |
| 20260903130023 | 58 | 219 | 1.0 | 2.0 | 0.00 | 0.00 | 0.00 | 46 | 1004.8 |
| 20260903125522 | 58 | 219 | 1.0 | 2.0 | 0.00 | 0.00 | 0.00 | 46 | 1004.7 |
| 20260903125022 | 58 | 220 | 1.0 | 2.0 | 0.00 | 0.00 | 0.00 | 45 | 1004.9 |
| 20260903124521 | 59 | 224 | 0.0 | 0.0 | 0.00 | 0.00 | 0.00 | 46 | 1004.8 |
| 20260903124022 | 59 | 224 | 0.0 | 0.0 | 0.00 | 0.00 | 0.00 | 46 | 1004.8 |
| 20260903124003 | 59 | 224 | 0.0 | 0.0 | 0.00 | 0.00 | 0.00 | 46 | 1004.7 |
| 20260903120558 | 58 | 224 | 0.0 | 2.0 | 0.00 | 0.00 | 0.00 | 46 | 1004.6 |
| 20260903120104 | 57 | 224 | 1.0 | 3.0 | 0.00 | 0.00 | 0.00 | 48 | 1004.6 |
| 20260903115555 | 57 | 224 | 0.0 | 3.0 | 0.00 | 0.00 | 0.00 | 53 | 1004.6 |
| 20260903115055 | 57 | 224 | 0.0 | 2.0 | 0.00 | 0.00 | 0.00 | 49 | 1004.5 |
| 20260903114555 | 58 | 224 | 1.0 | 2.0 | 0.00 | 0.00 | 0.00 | 51 | 1004.6 |
| 20260903114054 | 57 | 228 | 0.0 | 1.0 | 0.00 | 0.00 | 0.00 | 48 | 1004.5 |
| 20260903113552 | 58 | 228 | 0.0 | 1.0 | 0.00 | 0.00 | 0.00 | 48 | 1004.5 |
| 20260903113131 | 58 | 228 | 0.0 | 2.0 | 0.00 | 0.00 | 0.00 | 49 | 1004.6 |
| 20260903112551 | 59 | 228 | 0.0 | 2.0 | 0.00 | 0.00 | 0.00 | 49 | 1004.5 |
| 20260903112051 | 59 | 228 | 1.0 | 2.0 | 0.00 | 0.00 | 0.00 | 50 | 1004.5 |
| 20260903111550 | 60 | 228 | 1.0 | 2.0 | 0.00 | 0.00 | 0.00 | 49 | 1004.5 |
| 20260903111050 | 60 | 228 | 1.0 | 2.0 | 0.00 | 0.00 | 0.00 | 47 | 1004.5 |
| 20260903110550 | 60 | 228 | 0.0 | 2.0 | 0.00 | 0.00 | 0.00 | 45 | 1004.6 |
| 20260903110054 | 60 | 228 | 1.0 | 3.0 | 0.00 | 0.00 | 0.00 | 46 | 1004.5 |
| 20260903105549 | 60 | 228 | 1.0 | 3.0 | 0.00 | 0.00 | 0.00 | 44 | 1004.4 |
| 20260903105049 | 59 | 228 | 0.0 | 3.0 | 0.00 | 0.00 | 0.00 | 44 | 1004.4 |
| 20260903104559 | 59 | 228 | 0.0 | 3.0 | 0.00 | 0.00 | 0.00 | 44 | 1004.4 |
| 20260903104048 | 59 | 227 | 0.0 | 1.0 | 0.00 | 0.00 | 0.00 | 43 | 1004.4 |
| 20260903103548 | 58 | 227 | 0.0 | 3.0 | 0.00 | 0.00 | 0.00 | 46 | 1004.5 |
| 20260903103048 | 58 | 228 | 0.0 | 3.0 | 0.00 | 0.00 | 0.00 | 46 | 1004.5 |
| 20260903102546 | 59 | 227 | 1.0 | 2.0 | 0.00 | 0.00 | 0.00 | 45 | 1004.5 |
| 20260903102044 | 59 | 225 | 0.0 | 3.0 | 0.00 | 0.00 | 0.00 | 43 | 1004.5 |
| 20260903101544 | 60 | 225 | 0.0 | 4.0 | 0.00 | 0.00 | 0.00 | 42 | 1004.5 |
| 20260903101043 | 61 | 225 | 2.0 | 4.0 | 0.00 | 0.00 | 0.00 | 40 | 1004.4 |
| 20260903100543 | 61 | 223 | 2.0 | 4.0 | 0.00 | 0.00 | 0.00 | 40 | 1004.3 |
| 20260903100044 | 62 | 223 | 1.0 | 4.0 | 0.00 | 0.00 | 0.00 | 40 | 1004.2 |
| 20260903095541 | 61 | 204 | 1.0 | 3.0 | 0.00 | 0.00 | 0.00 | 41 | 1004.1 |
| 20260903095040 | 61 | 203 | 0.0 | 2.0 | 0.00 | 0.00 | 0.00 | 44 | 1004.0 |
| 20260903094549 | 61 | 194 | 0.0 | 2.0 | 0.00 | 0.00 | 0.00 | 45 | 1004.0 |
| 20260903094039 | 61 | 226 | 0.0 | 3.0 | 0.00 | 0.00 | 0.00 | 42 | 1004.0 |
| 20260903093537 | 62 | 226 | 1.0 | 3.0 | 0.00 | 0.00 | 0.00 | 40 | 1004.0 |
| 20260903093042 | 62 | 229 | 0.0 | 2.0 | 0.00 | 0.00 | 0.00 | 40 | 1003.9 |
| 20260903092536 | 62 | 229 | 0.0 | 2.0 | 0.00 | 0.00 | 0.00 | 40 | 1003.7 |
| 20260903092038 | 62 | 236 | 0.0 | 2.0 | 0.00 | 0.00 | 0.00 | 40 | 1003.7 |
| 20260903091545 | 62 | 236 | 0.0 | 2.0 | 0.00 | 0.00 | 0.00 | 38 | 1003.5 |
| 20260903091032 | 63 | 236 | 0.0 | 2.0 | 0.00 | 0.00 | 0.00 | 38 | 1003.6 |
| 20260903090531 | 63 | 236 | 1.0 | 2.0 | 0.00 | 0.00 | 0.00 | 38 | 1003.5 |
| 20260903090036 | 64 | 236 | 0.0 | 2.0 | 0.00 | 0.00 | 0.00 | 37 | 1003.3 |
| 20260903085529 | 63 | 236 | 0.0 | 2.0 | 0.00 | 0.00 | 0.00 | 37 | 1003.4 |
| 20260903085031 | 63 | 236 | 0.0 | 3.0 | 0.00 | 0.00 | 0.00 | 37 | 1003.4 |
| 20260903084528 | 64 | 236 | 0.0 | 4.0 | 0.00 | 0.00 | 0.00 | 37 | 1003.4 |
| 20260903084028 | 64 | 246 | 2.0 | 4.0 | 0.00 | 0.00 | 0.00 | 36 | 1003.5 |
| 20260903083529 | 64 | 248 | 0.0 | 2.0 | 0.00 | 0.00 | 0.00 | 38 | 1003.5 |
| 20260903083028 | 64 | 251 | 1.0 | 3.0 | 0.00 | 0.00 | 0.00 | 38 | 1003.5 |
| 20260903082528 | 64 | 257 | 2.0 | 3.0 | 0.00 | 0.00 | 0.00 | 37 | 1003.5 |
| 20260903082027 | 64 | 259 | 1.0 | 2.0 | 0.00 | 0.00 | 0.00 | 38 | 1003.4 |
| 20260903081526 | 64 | 260 | 0.0 | 0.0 | 0.00 | 0.00 | 0.00 | 38 | 1003.5 |
| 20260903081024 | 65 | 260 | 0.0 | 3.0 | 0.00 | 0.00 | 0.00 | 37 | 1003.4 |
| 20260903080524 | 65 | 260 | 0.0 | 6.0 | 0.00 | 0.00 | 0.00 | 36 | 1003.4 |
| 20260903080024 | 65 | 276 | 3.0 | 6.0 | 0.00 | 0.00 | 0.00 | 35 | 1003.4 |
| 20260903075523 | 65 | 267 | 1.0 | 6.0 | 0.00 | 0.00 | 0.00 | 35 | 1003.4 |
| 20260903075026 | 65 | 298 | 2.0 | 6.0 | 0.00 | 0.00 | 0.00 | 36 | 1003.4 |
| 20260903074521 | 65 | 314 | 3.0 | 7.0 | 0.00 | 0.00 | 0.00 | 35 | 1003.3 |
| 20260903074021 | 65 | 252 | 3.0 | 6.0 | 0.00 | 0.00 | 0.00 | 36 | 1003.4 |
| 20260903073525 | 65 | 259 | 1.0 | 5.0 | 0.00 | 0.00 | 0.00 | 35 | 1003.2 |
| 20260903073031 | 65 | 267 | 2.0 | 6.0 | 0.00 | 0.00 | 0.00 | 36 | 1003.2 |
| 20260903072519 | 66 | 267 | 2.0 | 4.0 | 0.00 | 0.00 | 0.00 | 35 | 1003.1 |
| 20260903072018 | 66 | 266 | 2.0 | 4.0 | 0.00 | 0.00 | 0.00 | 34 | 1003.1 |
| 20260903071526 | 66 | 265 | 1.0 | 4.0 | 0.00 | 0.00 | 0.00 | 34 | 1002.9 |
| 20260903071020 | 66 | 267 | 2.0 | 5.0 | 0.00 | 0.00 | 0.00 | 34 | 1002.9 |
| 20260903070517 | 66 | 276 | 3.0 | 7.0 | 0.00 | 0.00 | 0.00 | 34 | 1002.9 |
| 20260903070019 | 66 | 263 | 3.0 | 7.0 | 0.00 | 0.00 | 0.00 | 34 | 1002.9 |
| 20260903065516 | 67 | 261 | 2.0 | 3.0 | 0.00 | 0.00 | 0.00 | 34 | 1002.8 |
| 20260903065015 | 67 | 256 | 2.0 | 6.0 | 0.00 | 0.00 | 0.00 | 33 | 1003.0 |
| 20260903064515 | 67 | 261 | 2.0 | 6.0 | 0.00 | 0.00 | 0.00 | 33 | 1002.9 |
| 20260903064014 | 67 | 316 | 2.0 | 5.0 | 0.00 | 0.00 | 0.00 | 33 | 1003.0 |
| 20260903063514 | 67 | 301 | 2.0 | 4.0 | 0.00 | 0.00 | 0.00 | 33 | 1003.0 |
| 20260903034045 | 73 | 248 | 2.0 | 5.0 | 0.00 | 0.00 | 0.00 | 24 | 1001.7 |
| 20260903033543 | 73 | 256 | 2.0 | 5.0 | 0.00 | 0.00 | 0.00 | 24 | 1001.8 |
| 20260903033144 | 73 | 202 | 1.0 | 5.0 | 0.00 | 0.00 | 0.00 | 24 | 1001.8 |
| 20260903032545 | 73 | 238 | 2.0 | 5.0 | 0.00 | 0.00 | 0.00 | 23 | 1001.8 |
| 20260903032044 | 73 | 242 | 2.0 | 7.0 | 0.00 | 0.00 | 0.00 | 24 | 1001.8 |
| 20260903031543 | 73 | 249 | 2.0 | 7.0 | 0.00 | 0.00 | 0.00 | 23 | 1001.6 |
| 20260903031043 | 74 | 257 | 3.0 | 7.0 | 0.00 | 0.00 | 0.00 | 23 | 1001.6 |
| 20260903030543 | 74 | 234 | 4.0 | 7.0 | 0.00 | 0.00 | 0.00 | 23 | 1001.5 |
| 20260903030043 | 74 | 240 | 2.0 | 4.0 | 0.00 | 0.00 | 0.00 | 24 | 1001.5 |
| 20260903025543 | 74 | 265 | 2.0 | 6.0 | 0.00 | 0.00 | 0.00 | 24 | 1001.5 |
| 20260903025043 | 74 | 281 | 2.0 | 6.0 | 0.00 | 0.00 | 0.00 | 24 | 1001.5 |
| 20260903024545 | 74 | 234 | 2.0 | 5.0 | 0.00 | 0.00 | 0.00 | 23 | 1001.4 |
| 20260903024044 | 74 | 252 | 2.0 | 4.0 | 0.00 | 0.00 | 0.00 | 24 | 1001.3 |
| 20260903023542 | 74 | 259 | 1.0 | 6.0 | 0.00 | 0.00 | 0.00 | 25 | 1001.3 |
| 20260903023042 | 74 | 254 | 1.0 | 8.0 | 0.00 | 0.00 | 0.00 | 24 | 1001.3 |
| 20260903022545 | 75 | 275 | 4.0 | 8.0 | 0.00 | 0.00 | 0.00 | 25 | 1001.4 |
| 20260903022042 | 75 | 288 | 4.0 | 8.0 | 0.00 | 0.00 | 0.00 | 23 | 1001.3 |
| 20260903021543 | 75 | 281 | 3.0 | 8.0 | 0.00 | 0.00 | 0.00 | 22 | 1001.3 |
| 20260903021042 | 76 | 278 | 3.0 | 8.0 | 0.00 | 0.00 | 0.00 | 22 | 1001.3 |
| 20260903020541 | 76 | 290 | 5.0 | 11.0 | 0.00 | 0.00 | 0.00 | 22 | 1001.3 |
| 20260903020043 | 76 | 350 | 4.0 | 13.0 | 0.00 | 0.00 | 0.00 | 23 | 1001.1 |
| 20260903015541 | 77 | 323 | 7.0 | 13.0 | 0.00 | 0.00 | 0.00 | 22 | 1001.1 |
| 20260903015040 | 77 | 313 | 8.0 | 16.0 | 0.00 | 0.00 | 0.00 | 22 | 1001.2 |
| 20260903014547 | 78 | 342 | 9.0 | 16.0 | 0.00 | 0.00 | 0.00 | 20 | 1001.1 |
| 20260903014040 | 80 | 26 | 2.0 | 11.0 | 0.00 | 0.00 | 0.00 | 19 | 1001.2 |
| 20260903013540 | 81 | 232 | 4.0 | 9.0 | 0.00 | 0.00 | 0.00 | 14 | 1001.2 |
| 20260903013049 | 82 | 180 | 3.0 | 7.0 | 0.00 | 0.00 | 0.00 | 13 | 1001.1 |
| 20260903012540 | 82 | 180 | 4.0 | 8.0 | 0.00 | 0.00 | 0.00 | 12 | 1001.1 |
| 20260903012039 | 82 | 180 | 3.0 | 8.0 | 0.00 | 0.00 | 0.00 | 12 | 1001.1 |
| 20260903011539 | 82 | 173 | 2.0 | 6.0 | 0.00 | 0.00 | 0.00 | 14 | 1001.1 |
| 20260903011038 | 82 | 182 | 3.0 | 7.0 | 0.00 | 0.00 | 0.00 | 13 | 1001.1 |
| 20260903010538 | 83 | 182 | 4.0 | 8.0 | 0.00 | 0.00 | 0.00 | 13 | 1001.1 |
| 20260903010041 | 83 | 180 | 4.0 | 9.0 | 0.00 | 0.00 | 0.00 | 13 | 1001.2 |
| 20260903005538 | 83 | 175 | 4.0 | 9.0 | 0.00 | 0.00 | 0.00 | 13 | 1001.2 |
| 20260903005037 | 83 | 182 | 5.0 | 8.0 | 0.00 | 0.00 | 0.00 | 13 | 1001.1 |
| 20260903004537 | 83 | 183 | 4.0 | 9.0 | 0.00 | 0.00 | 0.00 | 13 | 1001.1 |
| 20260903004039 | 83 | 200 | 4.0 | 9.0 | 0.00 | 0.00 | 0.00 | 13 | 1001.1 |
| 20260903003538 | 83 | 182 | 3.0 | 9.0 | 0.00 | 0.00 | 0.00 | 14 | 1001.1 |
| 20260903003038 | 83 | 214 | 4.0 | 9.0 | 0.00 | 0.00 | 0.00 | 15 | 1001.2 |
| 20260903002536 | 83 | 184 | 5.0 | 8.0 | 0.00 | 0.00 | 0.00 | 13 | 1001.2 |
| 20260903002035 | 83 | 175 | 3.0 | 7.0 | 0.00 | 0.00 | 0.00 | 15 | 1001.2 |
| 20260903001535 | 83 | 196 | 3.0 | 8.0 | 0.00 | 0.00 | 0.00 | 15 | 1001.3 |
| 20260903001035 | 83 | 197 | 5.0 | 9.0 | 0.00 | 0.00 | 0.00 | 14 | 1001.2 |
| 20260903000535 | 83 | 173 | 6.0 | 12.0 | 0.00 | 0.00 | 0.00 | 14 | 1001.1 |
| 20260903000035 | 83 | 194 | 6.0 | 12.0 | 0.00 | 0.00 | 0.00 | 13 | 1001.2 |
| 20260902235535 | 83 | 187 | 4.0 | 8.0 | 0.00 | 0.00 | 0.00 | 14 | 1001.1 |
| 20260902235034 | 83 | 237 | 3.0 | 6.0 | 0.00 | 0.00 | 0.00 | 15 | 1001.1 |
| 20260902234534 | 83 | 191 | 2.0 | 8.0 | 0.00 | 0.00 | 0.00 | 14 | 1001.2 |
| 20260902234034 | 84 | 200 | 3.0 | 8.0 | 0.00 | 0.00 | 0.00 | 16 | 1001.3 |
| 20260902233534 | 84 | 186 | 4.0 | 9.0 | 0.00 | 0.00 | 0.00 | 15 | 1001.2 |
| 20260902233035 | 84 | 200 | 3.0 | 13.0 | 0.00 | 0.00 | 0.00 | 15 | 1001.3 |
| 20260902232533 | 83 | 250 | 5.0 | 14.0 | 0.00 | 0.00 | 0.00 | 14 | 1001.4 |
| 20260902232032 | 84 | 189 | 8.0 | 14.0 | 0.00 | 0.00 | 0.00 | 14 | 1001.5 |
| 20260902231534 | 84 | 186 | 5.0 | 13.0 | 0.00 | 0.00 | 0.00 | 13 | 1001.4 |
| 20260902231033 | 84 | 182 | 5.0 | 13.0 | 0.00 | 0.00 | 0.00 | 14 | 1001.5 |
| 20260902230533 | 84 | 186 | 5.0 | 14.0 | 0.00 | 0.00 | 0.00 | 14 | 1001.4 |
| 20260902230032 | 84 | 199 | 5.0 | 16.0 | 0.00 | 0.00 | 0.00 | 14 | 1001.5 |
| 20260902225532 | 84 | 135 | 6.0 | 18.0 | 0.00 | 0.00 | 0.00 | 13 | 1001.3 |
| 20260902225032 | 84 | 195 | 6.0 | 18.0 | 0.00 | 0.00 | 0.00 | 14 | 1001.3 |
| 20260902224543 | 84 | 176 | 7.0 | 17.0 | 0.00 | 0.00 | 0.00 | 14 | 1001.3 |
| 20260902224032 | 85 | 195 | 8.0 | 17.0 | 0.00 | 0.00 | 0.00 | 14 | 1001.2 |
| 20260902223533 | 85 | 154 | 7.0 | 17.0 | 0.00 | 0.00 | 0.00 | 14 | 1001.2 |
| 20260902223031 | 85 | 167 | 7.0 | 15.0 | 0.00 | 0.00 | 0.00 | 15 | 1001.4 |
| 20260902222530 | 86 | 171 | 7.0 | 15.0 | 0.00 | 0.00 | 0.00 | 16 | 1001.4 |
| 20260902222037 | 85 | 195 | 5.0 | 11.0 | 0.00 | 0.00 | 0.00 | 16 | 1001.4 |
| 20260902221529 | 85 | 221 | 5.0 | 11.0 | 0.00 | 0.00 | 0.00 | 14 | 1001.4 |
| 20260902221029 | 85 | 194 | 2.0 | 7.0 | 0.00 | 0.00 | 0.00 | 14 | 1001.5 |
| 20260902220530 | 86 | 201 | 4.0 | 8.0 | 0.00 | 0.00 | 0.00 | 13 | 1001.6 |
| 20260902220027 | 85 | 235 | 3.0 | 10.0 | 0.00 | 0.00 | 0.00 | 16 | 1001.7 |
| 20260902215530 | 85 | 178 | 5.0 | 14.0 | 0.00 | 0.00 | 0.00 | 15 | 1001.8 |
| 20260902215026 | 84 | 202 | 6.0 | 14.0 | 0.00 | 0.00 | 0.00 | 15 | 1001.7 |
| 20260902214526 | 84 | 202 | 6.0 | 10.0 | 0.00 | 0.00 | 0.00 | 15 | 1001.7 |
| 20260902214031 | 84 | 188 | 6.0 | 12.0 | 0.00 | 0.00 | 0.00 | 15 | 1001.8 |
| 20260902213525 | 84 | 182 | 7.0 | 13.0 | 0.00 | 0.00 | 0.00 | 14 | 1001.8 |
| 20260902213027 | 84 | 141 | 5.0 | 18.0 | 0.00 | 0.00 | 0.00 | 15 | 1001.9 |
| 20260902212524 | 84 | 157 | 8.0 | 18.0 | 0.00 | 0.00 | 0.00 | 15 | 1001.9 |
| 20260902212025 | 85 | 178 | 11.0 | 18.0 | 0.00 | 0.00 | 0.00 | 16 | 1001.8 |
| 20260902211522 | 85 | 194 | 7.0 | 16.0 | 0.00 | 0.00 | 0.00 | 16 | 1001.8 |
| 20260902211022 | 85 | 195 | 8.0 | 17.0 | 0.00 | 0.00 | 0.00 | 16 | 1001.9 |
| 20260902210522 | 85 | 188 | 5.0 | 20.0 | 0.00 | 0.00 | 0.00 | 17 | 1002.0 |